Address 0x84abac9717dc4ee8f9c430c417be72c73384f2ee 6

Txn Hash Method
Block
From
To
Value [Txn Fee]
0x16bea818f2ef1876acbef3123efedda501190ffb0ddd0319a1998215196841ffEquip Item202478232022-09-25 6:19:364 hrs 39 mins ago0x84abac9717dc4ee8f9c430c417be72c73384f2eeOUT 0x7d6f8ff20a5febcf5c3e44071f082291cdaa7b0f0 AVAX0.0066353085 26.5
0x575b12ebb890104fa925b8ae544d966c495a0019ca05cdf29542ab798f9afd4fUnequip Item201796432022-09-23 14:38:211 day 20 hrs ago0x84abac9717dc4ee8f9c430c417be72c73384f2eeOUT 0x7d6f8ff20a5febcf5c3e44071f082291cdaa7b0f0 AVAX0.0016003085 26.5
0x4fa674d15543467a391603b322f559cc15c854ba08c4fb8eb16acc72cdfb35e8Dig Multiple Ant...201795432022-09-23 14:34:481 day 20 hrs ago0x84abac9717dc4ee8f9c430c417be72c73384f2eeOUT 0xa69fee085a4c38656ce9c37a064a3307253074820 AVAX0.028873605 26.5
0xfabc294c7dac540e846b2d930fcaf1fb11a43320dff863cb029b502bbffd9870Dig Multiple Ant...201794152022-09-23 14:30:151 day 20 hrs ago0x84abac9717dc4ee8f9c430c417be72c73384f2eeOUT 0xa69fee085a4c38656ce9c37a064a3307253074820 AVAX0.008445793418 26.614419969
0x0987c9a6206b3609b4fa11e0c13cd35ee0d58b61495a8d7a45d9e2a278639dd8Equip Item201793622022-09-23 14:28:181 day 20 hrs ago0x84abac9717dc4ee8f9c430c417be72c73384f2eeOUT 0x7d6f8ff20a5febcf5c3e44071f082291cdaa7b0f0 AVAX0.0068626126 27.425
0x516a48d902b074d11afbc5e87146da1f4f5e7b7dea3640f15ebeab8163eef494Dig Sesame201791872022-09-23 14:22:071 day 20 hrs ago0x84abac9717dc4ee8f9c430c417be72c73384f2eeOUT 0xa69fee085a4c38656ce9c37a064a3307253074820 AVAX0.00547779102 26.94
0x0ebecfbef4a096fc40f23c1b511fa2eb8e5c018c5c2a7714aae9e16f8ff3f610Claim Ant Gold201780432022-09-23 13:41:471 day 21 hrs ago0x84abac9717dc4ee8f9c430c417be72c73384f2eeOUT 0xca1068444196cdfe676fd15a29f35e502580a69e0 AVAX0.0336885755 26.5
0xcfe63c71d326f853867af4bd2c34ad3169239fb8784d4ccdcc600f5b7dd4509eFill Order201778092022-09-23 13:33:391 day 21 hrs ago0x84abac9717dc4ee8f9c430c417be72c73384f2eeOUT 0xbf6bfe5d6b86308cf3b7f147dd03ef11f80bfde30.38 AVAX0.005730505 27.5
0xc13af657f8b508d6a0ffdec7fbe5836e04b50bd1c02682cf021f7cc608e3eba2Stake Antg201001452022-09-21 12:17:043 days 22 hrs ago0x84abac9717dc4ee8f9c430c417be72c73384f2eeOUT 0x7797c14a96fd481420d46993c64a1eb293f670d40 AVAX0.0024037355 26.5
0x10a6aa812430ab4020ded24883fff4cb4a9124ea666c3174fd3d51d2e9817f08Dig201001152022-09-21 12:15:453 days 22 hrs ago0x84abac9717dc4ee8f9c430c417be72c73384f2eeOUT 0xa69fee085a4c38656ce9c37a064a3307253074820 AVAX0.004435199 26.5
0x3d7e44993a9956b95f84bebc4367eaa383191347aeea46660ead532337b35cefClaim Ant Gold200505422022-09-20 0:44:255 days 10 hrs ago0x84abac9717dc4ee8f9c430c417be72c73384f2eeOUT 0xca1068444196cdfe676fd15a29f35e502580a69e0 AVAX0.034712206044 27.305205
0x4f64efef25168228b2b320af29f09e184370ec8cd41e68586755babb76106ee6Equip Item200504382022-09-20 0:40:315 days 10 hrs ago0x84abac9717dc4ee8f9c430c417be72c73384f2eeOUT 0x7d6f8ff20a5febcf5c3e44071f082291cdaa7b0f0 AVAX0.004218058 26.5
0xda093b0bc115c2128f14b2dde6bfb86b1f486231f46bb9abe5bd02ecd239ae12Unequip Item200503972022-09-20 0:38:475 days 10 hrs ago0x84abac9717dc4ee8f9c430c417be72c73384f2eeOUT 0x7d6f8ff20a5febcf5c3e44071f082291cdaa7b0f0 AVAX0.001653156759 27.375130567
0x6d4d1b81a63860a8c95a12a75a57ff2dbbed4a9c832f13cbb796113b47a2bc01Set Approval For...200503652022-09-20 0:37:165 days 10 hrs ago0x84abac9717dc4ee8f9c430c417be72c73384f2eeOUT 0x7d6f8ff20a5febcf5c3e44071f082291cdaa7b0f0 AVAX0.0014740825 27.5
0xd3668c8be42408b0651281842641fe6cd982c4f11cd3578048175be38a232c1aFill Order200503492022-09-20 0:36:355 days 10 hrs ago0x84abac9717dc4ee8f9c430c417be72c73384f2eeOUT 0xbf6bfe5d6b86308cf3b7f147dd03ef11f80bfde30.11 AVAX0.005730505 27.5
0xbe094d8db08e66a37a2a1c30d3261ff3f08bd3bce44855a03111504bc967ee5bFill Order200502902022-09-20 0:34:185 days 10 hrs ago0x84abac9717dc4ee8f9c430c417be72c73384f2eeOUT 0xbf6bfe5d6b86308cf3b7f147dd03ef11f80bfde30.11 AVAX0.00601359 27.5
0x48833bbedfe73b2e1c94eac230a435554e85d146446133084c1663c40bab8667Fill Order200500472022-09-20 0:24:315 days 10 hrs ago0x84abac9717dc4ee8f9c430c417be72c73384f2eeOUT 0xbf6bfe5d6b86308cf3b7f147dd03ef11f80bfde30.5 AVAX0.00648384 27.5
0xa39ab058f982cf57c8b4bbce2214e07e1a9ed49029334a3fe51a43cd3cf9d319Dig Sesame200498152022-09-20 0:15:165 days 10 hrs ago0x84abac9717dc4ee8f9c430c417be72c73384f2eeOUT 0xa69fee085a4c38656ce9c37a064a3307253074820 AVAX0.0050110705 26.5
0x7021cf6743d305c4f6d332d3a4b14f78a48d3a628832aeecdf35b559266e9ff2Dig Multiple Ant...200496812022-09-20 0:10:085 days 10 hrs ago0x84abac9717dc4ee8f9c430c417be72c73384f2eeOUT 0xa69fee085a4c38656ce9c37a064a3307253074820 AVAX0.031898576881 27.35225
0x8469172df843e373646f97b0dcce7d975d0a0e91904b6818dca34f674726f21bEquip Item199617402022-09-17 9:30:238 days 1 hr ago0x84abac9717dc4ee8f9c430c417be72c73384f2eeOUT 0x7d6f8ff20a5febcf5c3e44071f082291cdaa7b0f0 AVAX0.0040819805 26.5
0xb2734cfd11358288e2c3dcbc19552fe200bf8364403d2a1fe3b2fd55680121e9Dig Sesame199617182022-09-17 9:29:288 days 1 hr ago0x84abac9717dc4ee8f9c430c417be72c73384f2eeOUT 0xa69fee085a4c38656ce9c37a064a3307253074820 AVAX0.0051540115 26.5
0x6990671a27fccd2fb5d2418a2c33c7ef3465ea02a144429379b3067d2f10fe81Dig Multiple Ant...199616712022-09-17 9:27:148 days 1 hr ago0x84abac9717dc4ee8f9c430c417be72c73384f2eeOUT 0xa69fee085a4c38656ce9c37a064a3307253074820 AVAX0.026559494425 27.425
0x2c73f4a70b3dc247a3dca45683adab177293d00edbe7335eea83403451945f44Unequip Item199238612022-09-16 6:09:329 days 4 hrs ago0x84abac9717dc4ee8f9c430c417be72c73384f2eeOUT 0x7d6f8ff20a5febcf5c3e44071f082291cdaa7b0f0 AVAX0.001639370222 27.146835064
0x4b01a6cc9a7d834bfdeec8ed2732931d3901531e0720bdc1073b5a0eafab58eaStake Ants199238192022-09-16 6:07:529 days 4 hrs ago0x84abac9717dc4ee8f9c430c417be72c73384f2eeOUT 0xca1068444196cdfe676fd15a29f35e502580a69e0 AVAX0.00208141134 26.94
0x78dd51692ef174786e347437f9269c2babafb7def08a48194097cbcc61787a1bDig199238012022-09-16 6:07:069 days 4 hrs ago0x84abac9717dc4ee8f9c430c417be72c73384f2eeOUT 0xa69fee085a4c38656ce9c37a064a3307253074820 AVAX0.003869583 26.5
[ Download CSV Export 
Latest 6 internal transactions
Parent Txn Hash Block From To Value
0xafb6bbefa1783f3ae00ad801df45a5ca271b4128e8313ceee513905c8d920596104210412022-02-03 7:08:25234 days 3 hrs ago Trader Joe: Router0x84abac9717dc4ee8f9c430c417be72c73384f2ee1.420846704038689424 AVAX
0x1586cab4d33abc8c4e3d14d8665cf15073bf4a3f8b1b0e20d48ddcefc4ca2e75101978672022-01-29 5:05:32239 days 5 hrs ago Trader Joe: Router0x84abac9717dc4ee8f9c430c417be72c73384f2ee0.00502875265347247 AVAX
0xd0229ae454ed80c36b50452800b27e41de125543e015655c204b1df0db883ece54943322021-10-11 9:14:42349 days 1 hr ago 0x67d1eb461c9a80ac8674654c6a38e096a6f439650x84abac9717dc4ee8f9c430c417be72c73384f2ee0.0123100569991998 AVAX
0x0026975968b1dd21fb704253625bcf3917aec21733a732d54dffd467ce3ac8f744916002021-09-18 1:57:41372 days 9 hrs ago 0x13fe4f3e02d30d0d3fc505cf2d41182b5484b05d0x84abac9717dc4ee8f9c430c417be72c73384f2ee0.190230491313124823 AVAX
0x224ae8a7abdbacfe28a9b7c71a967ba2f1a32bae52f639b32d09436acf02bc0d44804022021-09-17 20:18:17372 days 14 hrs ago 0x13fe4f3e02d30d0d3fc505cf2d41182b5484b05d0x84abac9717dc4ee8f9c430c417be72c73384f2ee0.068057736162697947 AVAX
0x019e073f2499d760429b1f51ac8b03919670089296f2d04cb7a134b6c2dac2e544775692021-09-17 18:45:15372 days 16 hrs ago 0x13fe4f3e02d30d0d3fc505cf2d41182b5484b05d0x84abac9717dc4ee8f9c430c417be72c73384f2ee0.460820568396601752 AVAX
[ Download CSV Export 
Loading

Contract Name:
0

Compiler Version
0

Optimization Enabled:
0

Other Settings:
-NA-
Block Transaction Gas Used Reward
Age Block Fee Address BC Fee Address Voting Power Jailed Incoming
Block Uncle Number Difficulty Gas Used Reward
Loading
Make sure to use the "Vote Down" button for any spammy posts, and the "Vote Up" for interesting conversations.